Weather in Sanguem

India     15°13′32″N   74°09′37″E
temp.,
°C
wind,
m/s
gust,
m/s
humid.,
%
clouds,
%
prec.,
mm/h
press.,
hPa
HPBL,
m
12 may, wed
wed1223:30+25se1187100 0.2 101038
02:30+24n1190100 0.0 100826
05:30+23e0093100 0.0 100813
08:30+28wnw1369100 0.0 1009669
11:30+34wnw2144100 0.0 10081383
14:30+34w4345100 0.1 10041939
17:30+30w346799 0.6 10041061
20:30+26wnw2483100 0.4 1006354
13 may, thu
thu1323:30+25wnw1287100 0.4 1007120
02:30+25w1286100 0.1 1006127
05:30+24w0193100 0.3 100619
08:30+28wnw127275 0.1 1008764
11:30+34w214699 0.1 10061556
14:30+30sw336392 2.1 1004617
17:30+30w346660 3.8 1003737
20:30+24sw119280 2.2 100546
14 may, fri
fri1423:30+25s1192100 2.6 100648
02:30+24ese1194100 0.0 100317
05:30+24se119494 2.7 100424
08:30+27nw1178100 0.4 1005410
11:30+33nne0252100 0.6 10041053
14:30+35s1543100 0.2 10001892
17:30+27wnw2476100 0.6 1000304
20:30+25nne1188100 0.8 100221
15 may, sat
sat1523:30+25e1185100 0.8 100112
02:30+25ene1182100 0.0 99819
05:30+25ese2672100 0.0 1000212
08:30+27e41368100 0.1 9991074
11:30+27e51370100 0.5 1000978
14:30+25e71875100 0.9 9951121
17:30+23e71687100 5.4 9971021
20:30+23e81785100 2.9 9981064
16 may, sun
sun1623:30+24e102186100 6.8 9951304
02:30+24ese132785100 3.4 9891637
05:30+23se71795100 38.4 9921407
08:30+24s61896100 26.7 9961695
11:30+24s51597100 43.5 9991350
14:30+24sw61496100 25.8 9991265
17:30+24ssw51296100 33.1 10001020
20:30+24s4109595 8.1 1003803